Temp
64 65 67 66 68 75 77 76 77 77 79 80 78 80 81 80 79 79 79 78 78 79 79 78 77 77 78 79 78 78 77 76 75 72 72 73 71 71 75 73 73 75 76 74 72 69 67 65 66 72 73 74 74 75 76 76 77 76 73 74 75 75 74
66 67 68 67 67 71 75 76 77 78 79 79 80 79 80 81 79 78 79 79 78 79 79 79 78 79 78 77 76 75 75 74 74 74 72 72 72 70 70 71 73 72 74 74 74 72 68 65 66 67 68 73 73 73 74 75 76 76 75 75 77 76 75
67 68 69 68 68 73 75 75 76 75 77 76 77 79 80 81 80 80 79 80 78 79 79 80 79 77 77 77 76 75 75 74 74 73 70 71 71 71 70 70 69 70 71 71 71 71 71 71 66 67 69 69 67 70 73 73 76 78 76 76 75 77 77
67 69 69 69 72 73 73 74 74 74 75 75 75 76 78 80 80 80 79 80 79 78 79 80 78 78 77 77 77 76 75 74 73 71 71 71 70 69 69 69 68 70 70 70 70 70 70 68 68 69 71 74 70 69 72 75 75 78 78 76 76 76 77
70 70 70 70 71 72 72 71 71 72 73 74 74 74 75 77 77 77 79 79 79 78 78 78 78 79 78 78 77 76 75 75 74 72 71 70 70 69 69 69 70 71 72 72 73 72 70 70 70 69 69 71 73 75 77 73 76 76 76 78 78 78 78
65 69 70 71 71 71 72 71 71 71 72 71 72 72 74 75 76 75 77 77 77 77 78 79 78 80 79 77 77 76 75 74 74 73 71 70 70 69 69 70 71 72 73 74 74 73 73 73 71 67 69 72 68 69 75 73 71 76 78 78 80 80 79
66 66 67 70 71 70 70 70 72 73 73 72 73 73 74 76 76 76 76 77 78 78 78 78 78 79 79 79 78 76 75 75 75 74 73 72 71 71 71 70 71 73 73 74 74 74 72 72 69 69 69 70 70 70 73 74 75 72 75 79 80 81 80
66 64 66 67 67 68 69 69 68 68 69 72 74 75 76 75 76 76 75 73 73 75 77 77 79 79 78 78 78 77 76 76 75 74 73 73 72 71 71 71 72 73 74 74 74 74 74 73 72 71 70 67 67 68 68 73 75 75 74 78 81 81 81
66 66 66 66 67 68 68 68 68 68 68 69 71 74 76 76 74 70 70 69 70 68 69 69 71 72 76 76 76 77 76 78 76 75 74 73 72 72 72 72 72 73 75 75 75 74 74 74 74 74 72 69 65 64 67 67 71 74 81 77 79 81 81
66 65 66 66 67 67 67 67 67 68 69 71 72 73 71 71 71 70 69 68 69 69 69 69 69 71 72 74 76 76 76 76 76 75 74 73 73 73 73 73 73 74 75 76 76 75 75 75 75 74 73 71 70 66 65 65 67 69 77 82 76 79 82
68 67 66 66 67 66 66 66 67 67 67 69 69 69 68 69 70 70 69 68 69 69 69 69 71 73 75 73 73 73 73 72 70 70 73 74 74 74 74 74 74 74 76 76 75 75 75 75 74 74 74 74 73 69 68 66 67 71 71 76 78 79 82
70 70 68 66 66 66 66 66 67 67 67 68 69 69 69 70 69 71 70 69 69 70 71 71 72 74 74 72 73 73 71 68 68 70 71 71 72 74 73 73 75 75 76 75 76 76 76 75 74 75 74 75 74 73 71 69 66 70 76 72 74 81 80
72 72 70 66 65 65 65 67 67 67 67 68 68 69 69 68 68 68 70 70 70 70 72 74 75 75 74 74 74 73 73 71 69 70 70 69 69 67 67 67 67 67 69 71 73 74 75 76 76 75 75 74 74 74 72 70 68 68 72 72 74 78 83
71 72 69 68 67 66 67 66 66 66 67 66 67 68 67 68 68 68 69 71 71 71 72 73 74 75 74 74 74 73 73 74 72 69 68 69 70 69 68 68 69 70 70 69 69 71 73 77 76 74 75 75 73 74 74 71 69 69 72 76 75 76 80
72 72 70 66 66 66 67 66 67 67 66 67 67 67 68 68 67 68 68 69 71 72 73 74 74 74 74 73 73 74 73 72 70 70 69 69 69 70 69 69 69 69 70 68 68 69 70 72 76 76 76 75 74 74 74 73 71 70 69 72 72 75 79
70 71 71 71 70 70 68 66 66 66 66 66 68 67 68 68 68 68 68 68 70 72 73 74 74 74 74 73 73 72 72 71 70 69 69 69 69 70 69 68 69 70 69 68 68 68 68 69 74 77 77 77 75 75 75 75 72 70 70 70 73 74 73
70 70 70 70 69 71 72 72 72 71 69 67 66 67 69 68 68 68 68 70 71 73 75 75 75 74 73 73 71 71 72 71 71 70 69 70 71 70 69 68 69 69 69 67 68 67 68 69 71 75 75 75 73 74 75 75 75 72 71 69 67 63 67
69 69 69 70 70 71 71 71 71 73 72 73 73 70 67 68 68 67 68 70 71 72 73 74 73 72 71 70 70 69 68 68 70 71 71 70 71 70 69 68 69 69 69 67 67 67 66 68 69 70 72 75 75 75 75 74 73 73 67 65 66 66 66
68 69 69 69 69 70 71 71 71 71 73 72 72 73 74 71 69 68 70 68 71 73 73 72 72 71 72 71 69 68 67 67 70 72 71 71 71 70 69 69 69 69 69 67 66 66 67 67 67 67 67 69 73 74 70 70 72 70 67 66 65 65 66
67 68 68 69 70 70 71 71 71 71 72 72 71 72 73 74 74 74 74 74 74 72 72 72 72 72 72 72 71 70 69 68 68 70 72 72 72 72 71 70 68 68 67 67 67 66 66 67 67 67 67 66 66 65 64 67 69 67 66 65 65 65 65
68 68 68 69 69 69 69 70 70 70 71 70 71 72 72 72 72 73 73 74 75 75 74 74 73 73 73 72 71 70 69 68 68 70 70 70 70 70 70 70 70 69 68 68 67 67 67 65 65 65 65 65 65 64 64 66 66 64 63 63 63 63 64
68 69 69 69 69 68 69 69 69 69 69 70 71 71 72 72 71 72 73 73 74 74 73 71 68 69 69 69 69 69 69 69 69 69 69 69 69 69 69 69 69 69 69 70 65 64 64 64 64 64 65 66 66 66 65 65 64 64 64 64 64 65 64
69 68 68 68 68 68 68 68 68 68 69 69 69 69 70 70 70 70 70 72 71 71 72 67 60 54 58 66 69 69 69 69 70 69 69 69 69 69 70 70 69 71 68 66 64 59 55 55 59 64 65 66 64 63 63 63 63 63 63 63 63 64 63
68 68 67 67 67 68 68 68 67 68 67 67 67 67 67 67 68 68 69 69 69 70 71 62 46 42 42 47 63 66 67 67 68 68 68 68 68 69 69 71 70 70 69 67 65 57 54 53 52 51 54 60 63 65 64 63 63 64 63 62 63 64 64
68 67 67 68 67 68 67 67 66 65 65 65 65 66 66 66 67 67 67 68 67 68 68 50 43 42 42 43 52 63 65 65 66 66 67 67 68 68 68 69 70 70 69 69 69 68 63 56 52 52 51 51 54 54 56 62 63 63 63 63 63 63 62
68 67 67 67 66 67 67 66 65 64 63 64 64 63 64 64 64 65 65 65 65 66 68 45 43 42 42 42 44 58 64 63 63 64 64 66 66 67 67 68 68 70 72 71 71 70 69 69 60 55 53 52 50 50 50 50 52 64 67 63 62 63 64
66 66 66 66 66 66 64 63 62 63 62 62 61 61 62 61 62 63 63 63 63 64 67 48 41 41 41 40 40 50 63 63 63 63 64 64 65 65 66 66 67 68 69 70 70 70 70 70 70 70 69 69 69 64 50 48 50 51 56 64 64 63 66
65 65 65 65 64 64 62 61 62 61 60 60 59 59 59 59 60 61 61 62 62 63 61 46 46 44 42 41 41 47 63 63 63 63 64 64 64 65 66 67 67 67 68 68 70 68 66 65 66 67 67 67 68 68 70 68 64 60 56 58 63 66 67
64 64 64 64 63 62 61 60 59 59 59 58 58 58 59 59 58 59 60 60 61 61 58 43 46 46 46 44 45 61 62 62 62 63 64 65 66 66 67 67 67 67 67 69 56 42 50 59 64 64 64 65 66 67 68 67 60 59 66 67 68 68 68
63 63 63 62 61 60 59 59 58 58 57 57 57 57 57 58 59 59 59 60 59 59 60 53 46 46 43 40 49 61 61 61 62 63 63 65 67 67 68 68 68 68 68 61 43 43 44 55 61 61 61 62 63 65 65 68 61 55 53 51 49 50 51
63 62 63 61 60 59 60 59 58 58 57 56 56 57 57 57 58 58 58 59 59 58 58 57 46 46 45 40 49 59 60 60 61 63 64 65 66 66 69 70 68 64 58 50 43 42 44 52 57 56 56 56 57 59 61 65 67 66 56 54 54 53 50
62 62 61 60 59 59 58 58 58 58 57 57 57 57 57 57 57 58 59 59 60 59 59 58 45 42 41 42 52 59 60 60 60 61 60 60 60 62 63 65 59 51 53 47 42 42 42 49 51 53 52 53 54 55 58 60 57 56 57 59 60 61 60
61 61 61 60 59 59 59 58 57 57 57 57 57 57 57 57 56 57 58 59 59 59 59 60 50 42 45 46 43 55 60 59 57 57 57 57 57 59 61 61 62 48 45 45 44 43 43 43 48 49 51 51 51 52 55 52 53 54 54 55 56 57 59
61 61 61 60 60 59 59 57 57 58 57 57 57 56 56 56 57 57 58 59 60 60 61 60 51 44 43 43 43 49 58 55 54 54 54 55 56 57 58 60 60 52 45 44 44 43 44 44 44 48 50 51 52 50 46 48 50 51 51 52 54 56 58
63 62 61 61 59 59 60 60 59 59 58 57 57 57 57 57 57 57 59 59 60 61 63 59 52 43 42 42 42 45 53 52 50 51 52 53 54 55 56 57 56 52 43 43 43 43 42 43 42 48 49 45 43 42 46 47 48 48 50 51 53 54 56
62 63 61 61 60 59 60 59 59 59 57 57 57 56 57 57 56 57 58 59 60 61 60 55 48 48 42 42 41 42 43 48 43 51 50 50 51 52 54 55 57 51 43 42 42 42 42 42 44 47 43 42 42 41 43 47 48 49 49 51 52 52 54
63 63 61 61 61 60 59 59 60 58 58 57 56 56 57 57 57 57 57 57 59 60 60 55 48 46 46 40 42 43 43 42 43 48 50 50 51 52 53 54 52 43 41 41 42 42 42 42 44 42 42 42 41 42 46 47 48 49 50 51 52 52 53
MSLP
1017.07 1017.31 1017.11 1017.47 1017.51 1016.19 1015.67 1015.71 1015.51 1015.55 1015.43 1015.39 1015.55 1015.63 1015.67 1015.79 1016.11 1016.39 1016.47 1016.67 1016.79 1016.83 1016.99 1017.23 1017.35 1017.27 1017.23 1017.15 1017.23 1017.43 1017.75 1018.03 1018.35 1018.87 1019.07 1018.91 1019.39 1019.51 1018.95 1019.23 1019.31 1019.27 1019.31 1019.51 1019.75 1020.59 1020.99 1021.71 1021.31 1020.03 1019.51 1019.39 1019.35 1019.35 1019.35 1019.47 1019.43 1019.39 1019.51 1019.43 1019.47 1019.59 1019.71
1016.59 1016.83 1016.75 1016.67 1017.31 1016.67 1015.79 1015.63 1015.51 1015.55 1015.47 1015.43 1015.43 1015.51 1015.51 1015.55 1015.79 1016.11 1016.27 1016.51 1016.67 1016.67 1016.67 1016.87 1016.99 1017.03 1017.15 1017.19 1017.27 1017.47 1017.83 1017.91 1017.91 1017.99 1018.31 1018.55 1018.55 1018.79 1018.75 1018.87 1018.79 1019.07 1019.03 1019.11 1019.27 1019.51 1020.43 1021.15 1020.99 1020.71 1020.55 1019.47 1019.27 1019.15 1018.99 1018.83 1018.79 1018.71 1018.79 1018.95 1018.95 1019.07 1019.23
1016.63 1016.63 1016.55 1016.55 1016.83 1016.15 1015.51 1015.51 1015.47 1015.51 1015.43 1015.43 1015.39 1015.35 1015.39 1015.39 1015.55 1015.75 1016.03 1016.27 1016.43 1016.47 1016.43 1016.51 1016.71 1016.91 1016.95 1016.99 1016.99 1017.23 1017.43 1017.71 1017.63 1017.79 1018.11 1018.31 1018.47 1018.59 1018.83 1019.03 1019.35 1019.07 1019.03 1019.19 1019.23 1019.43 1019.55 1019.75 1020.71 1020.43 1019.87 1020.27 1020.55 1019.43 1018.75 1018.75 1018.51 1018.27 1018.23 1018.31 1018.51 1018.59 1018.71
1016.23 1016.15 1016.23 1016.39 1015.83 1015.47 1015.47 1015.39 1015.39 1015.47 1015.43 1015.59 1015.51 1015.47 1015.39 1015.31 1015.35 1015.47 1015.79 1015.99 1016.11 1016.27 1016.35 1016.31 1016.43 1016.59 1016.71 1016.79 1016.83 1016.99 1017.23 1017.43 1017.59 1017.71 1017.83 1017.95 1018.23 1018.47 1018.71 1019.11 1019.51 1019.51 1019.39 1019.47 1019.31 1019.19 1019.51 1019.87 1020.03 1019.99 1019.63 1019.19 1019.51 1019.75 1018.79 1018.11 1018.03 1017.87 1017.87 1017.91 1018.15 1018.23 1018.27
1015.83 1015.79 1015.91 1016.07 1015.71 1015.71 1015.67 1015.99 1016.07 1015.87 1015.95 1015.91 1015.91 1015.95 1015.83 1015.55 1015.43 1015.43 1015.39 1015.55 1015.79 1015.99 1016.23 1016.19 1016.11 1016.03 1016.19 1016.43 1016.63 1016.83 1017.07 1017.07 1017.19 1017.43 1017.63 1017.87 1018.03 1018.27 1018.39 1018.39 1018.63 1018.75 1018.83 1018.83 1018.47 1018.55 1018.95 1019.27 1019.47 1019.67 1019.51 1018.91 1018.67 1018.35 1017.79 1017.83 1017.51 1017.75 1017.71 1017.67 1017.59 1017.71 1017.75
1016.39 1015.87 1015.63 1015.63 1015.55 1015.59 1015.55 1015.91 1016.11 1016.27 1016.23 1016.43 1016.43 1016.47 1016.31 1016.15 1015.99 1015.95 1015.79 1015.71 1015.63 1015.59 1015.75 1015.99 1016.07 1015.83 1015.91 1016.19 1016.47 1016.67 1016.87 1017.07 1017.07 1017.19 1017.47 1017.47 1017.59 1017.95 1018.15 1018.07 1018.11 1018.15 1018.23 1017.99 1017.91 1018.07 1018.15 1018.31 1018.71 1019.35 1018.95 1018.63 1019.23 1018.71 1017.75 1017.83 1018.23 1017.59 1017.31 1017.31 1017.15 1017.11 1017.19
1015.91 1016.27 1016.11 1015.67 1015.47 1015.43 1015.55 1015.87 1015.87 1015.91 1016.07 1016.23 1016.31 1016.47 1016.31 1016.23 1016.19 1016.15 1016.11 1016.03 1015.91 1015.83 1015.87 1015.91 1015.99 1015.91 1015.83 1016.03 1016.23 1016.51 1016.71 1016.71 1016.71 1016.91 1017.07 1017.15 1017.27 1017.35 1017.55 1017.99 1018.03 1017.91 1017.71 1017.55 1017.63 1017.67 1017.91 1018.23 1018.63 1018.83 1018.99 1018.75 1018.51 1018.67 1017.87 1017.63 1017.43 1018.03 1017.51 1016.91 1016.63 1016.55 1016.63
1016.43 1016.59 1016.47 1015.87 1015.75 1015.83 1015.83 1016.03 1016.19 1016.27 1016.35 1016.23 1016.07 1016.03 1016.07 1016.23 1016.19 1016.15 1016.23 1016.43 1016.67 1016.55 1016.35 1016.31 1016.07 1015.99 1015.95 1015.95 1016.03 1016.11 1016.23 1016.35 1016.55 1016.67 1016.83 1016.95 1017.15 1017.23 1017.39 1017.55 1017.59 1017.55 1017.43 1017.27 1017.23 1017.35 1017.27 1017.55 1017.91 1018.15 1018.63 1019.47 1019.19 1018.63 1018.51 1017.75 1017.31 1017.35 1017.27 1016.59 1016.03 1016.15 1016.11
1016.35 1016.47 1016.19 1015.91 1015.79 1015.75 1015.91 1016.19 1016.39 1016.43 1016.51 1016.59 1016.43 1016.23 1016.03 1016.07 1016.31 1016.43 1016.39 1016.39 1016.35 1016.55 1016.71 1017.19 1017.43 1017.35 1016.47 1016.15 1016.07 1015.99 1016.11 1015.87 1016.19 1016.39 1016.51 1016.63 1016.75 1016.79 1016.95 1017.07 1017.27 1017.23 1016.99 1016.95 1016.87 1016.87 1016.91 1016.95 1017.11 1017.39 1017.83 1018.51 1019.39 1019.75 1018.59 1018.47 1017.83 1017.19 1015.83 1016.27 1015.87 1015.47 1015.51
1015.83 1015.91 1015.87 1015.87 1015.87 1015.91 1016.07 1016.27 1016.31 1016.31 1016.35 1016.27 1016.23 1016.07 1016.19 1016.31 1016.39 1016.39 1016.43 1016.51 1016.35 1016.11 1015.99 1016.03 1016.35 1016.91 1017.03 1016.63 1016.23 1016.03 1015.99 1015.83 1015.99 1016.23 1016.35 1016.55 1016.43 1016.47 1016.55 1016.63 1016.75 1016.71 1016.59 1016.43 1016.43 1016.47 1016.47 1016.47 1016.59 1016.79 1017.07 1017.83 1018.23 1019.15 1019.39 1019.03 1018.11 1017.59 1016.27 1015.47 1016.03 1015.39 1014.91
1015.39 1015.47 1015.55 1015.59 1015.79 1016.03 1016.23 1016.35 1016.35 1016.47 1016.47 1016.35 1016.39 1016.39 1015.91 1015.83 1016.15 1016.51 1016.67 1016.75 1016.75 1016.67 1016.59 1016.47 1016.39 1016.35 1016.27 1016.39 1016.43 1016.35 1016.19 1016.35 1016.87 1016.87 1016.59 1016.39 1016.39 1016.35 1016.35 1016.35 1016.31 1016.39 1016.11 1016.11 1016.11 1016.03 1016.07 1016.15 1016.27 1016.43 1016.67 1016.87 1017.23 1018.27 1018.47 1018.99 1018.31 1016.87 1016.47 1015.39 1015.15 1015.23 1014.59
1015.39 1015.19 1015.23 1015.43 1015.67 1015.87 1016.03 1016.11 1016.23 1016.31 1016.31 1016.31 1016.39 1016.35 1016.11 1015.95 1015.95 1016.35 1016.59 1016.75 1016.67 1016.47 1016.27 1016.27 1016.15 1016.07 1016.03 1016.23 1016.23 1016.11 1016.35 1017.03 1017.39 1017.27 1016.95 1017.11 1016.91 1016.71 1016.83 1016.75 1016.39 1016.27 1015.99 1015.91 1015.79 1015.71 1015.71 1015.79 1015.91 1015.99 1016.23 1016.35 1016.71 1017.07 1017.67 1017.99 1018.63 1016.87 1016.03 1016.39 1015.43 1014.63 1014.67
1015.35 1015.31 1015.31 1015.23 1015.43 1015.75 1015.75 1015.75 1015.79 1015.91 1015.95 1015.95 1016.07 1016.19 1015.95 1015.87 1015.95 1016.23 1016.43 1016.47 1016.39 1016.19 1016.07 1015.87 1015.71 1015.67 1015.79 1015.95 1015.95 1015.99 1015.99 1016.55 1017.19 1017.23 1016.95 1016.75 1016.83 1017.27 1017.59 1017.91 1017.95 1017.87 1017.43 1016.95 1016.27 1015.83 1015.59 1015.47 1015.51 1015.67 1015.79 1016.07 1016.19 1016.35 1016.75 1017.39 1017.83 1017.59 1016.15 1015.99 1015.63 1015.07 1014.55
1015.47 1015.51 1015.63 1015.79 1015.63 1015.27 1015.31 1015.59 1015.83 1016.03 1016.23 1016.35 1016.15 1016.07 1015.87 1015.91 1015.95 1016.11 1016.23 1016.11 1015.99 1015.91 1015.83 1015.75 1015.59 1015.59 1015.67 1015.87 1015.87 1015.83 1015.83 1015.95 1016.31 1016.51 1016.59 1016.59 1016.55 1016.55 1016.63 1016.95 1016.91 1016.75 1017.07 1017.71 1017.39 1016.75 1016.07 1015.43 1015.31 1015.39 1015.51 1015.67 1015.91 1015.87 1016.27 1016.79 1017.35 1017.19 1016.39 1015.63 1015.63 1015.47 1014.87
1015.31 1015.43 1015.67 1016.23 1016.39 1016.31 1016.07 1015.75 1015.55 1015.47 1015.83 1016.19 1016.35 1016.31 1015.99 1015.83 1016.07 1016.03 1015.99 1015.83 1015.71 1015.67 1015.63 1015.59 1015.55 1015.51 1015.71 1015.91 1016.03 1015.95 1016.03 1016.11 1016.31 1016.43 1016.47 1016.63 1016.63 1016.67 1016.71 1016.75 1016.51 1016.47 1016.59 1017.51 1017.95 1017.63 1017.11 1016.19 1015.43 1015.35 1015.35 1015.47 1015.63 1015.67 1015.47 1016.19 1016.47 1016.79 1016.87 1015.91 1015.71 1015.19 1015.15
1015.63 1015.59 1015.51 1015.55 1015.71 1015.79 1016.19 1016.31 1016.35 1016.39 1016.15 1015.87 1015.91 1016.15 1016.03 1015.75 1015.67 1015.95 1016.23 1015.99 1015.75 1015.55 1015.43 1015.35 1015.27 1015.39 1015.55 1015.79 1015.99 1016.15 1016.07 1016.15 1016.31 1016.47 1016.55 1016.59 1016.47 1016.43 1016.63 1016.75 1016.79 1016.59 1016.43 1016.75 1017.03 1017.47 1017.83 1017.27 1015.99 1015.27 1014.99 1014.91 1015.15 1015.15 1015.15 1015.27 1015.87 1016.35 1016.39 1016.23 1015.55 1016.03 1016.35
1015.87 1015.95 1015.95 1015.87 1015.87 1015.59 1015.47 1015.47 1015.59 1015.83 1016.11 1016.27 1016.79 1016.91 1016.95 1016.91 1016.27 1015.71 1015.55 1015.47 1015.43 1015.35 1015.11 1015.07 1015.11 1015.19 1015.63 1015.87 1015.95 1016.11 1016.15 1016.15 1016.19 1016.35 1016.59 1016.55 1016.35 1016.43 1016.59 1016.63 1016.55 1016.55 1016.63 1016.83 1016.87 1017.23 1017.35 1017.31 1016.43 1015.31 1014.91 1014.71 1014.71 1014.79 1014.79 1014.87 1015.03 1015.55 1015.79 1016.43 1016.79 1017.43 1016.51
1016.11 1016.11 1016.11 1015.99 1016.03 1015.83 1015.67 1015.67 1015.59 1015.43 1015.31 1015.35 1015.35 1015.83 1016.43 1016.83 1016.79 1016.87 1016.51 1015.99 1015.75 1015.59 1015.51 1015.43 1015.59 1015.59 1015.59 1015.71 1015.87 1016.19 1016.39 1016.47 1016.19 1015.95 1015.95 1015.99 1016.07 1016.15 1016.27 1016.39 1016.23 1016.31 1016.39 1016.63 1016.79 1017.11 1017.39 1017.59 1017.07 1016.27 1015.87 1015.11 1014.67 1014.55 1014.51 1014.67 1014.91 1015.15 1015.95 1016.35 1015.91 1015.75 1015.91
1016.27 1016.23 1016.19 1016.11 1016.03 1015.87 1015.71 1015.75 1015.71 1015.55 1015.47 1015.47 1015.35 1015.11 1015.07 1015.51 1016.03 1016.55 1016.23 1016.39 1016.03 1015.67 1015.55 1015.67 1015.71 1015.59 1015.59 1015.75 1016.11 1016.23 1016.27 1016.31 1015.99 1015.75 1015.67 1015.63 1015.71 1015.79 1015.87 1015.95 1015.79 1015.63 1015.75 1016.07 1016.19 1016.31 1016.63 1017.11 1017.35 1017.31 1017.07 1016.43 1015.43 1014.95 1015.39 1015.23 1015.03 1015.39 1015.87 1015.83 1015.95 1016.07 1016.19
1016.43 1016.31 1016.23 1016.15 1015.95 1015.83 1015.79 1015.75 1015.75 1015.75 1015.63 1015.59 1015.51 1015.35 1015.23 1015.23 1015.19 1015.31 1015.39 1015.35 1015.39 1015.55 1015.51 1015.39 1015.39 1015.39 1015.39 1015.59 1015.83 1015.71 1015.63 1015.67 1015.67 1015.67 1015.47 1015.43 1015.39 1015.43 1015.47 1015.55 1015.75 1015.91 1016.07 1016.15 1016.11 1015.91 1015.95 1016.15 1016.39 1016.59 1016.87 1017.11 1016.99 1016.83 1016.95 1016.11 1015.67 1015.79 1016.27 1016.75 1016.59 1016.39 1016.23
1016.39 1016.31 1016.27 1016.15 1016.07 1016.07 1016.03 1015.95 1015.91 1015.83 1015.75 1015.79 1015.67 1015.59 1015.55 1015.51 1015.39 1015.35 1015.27 1015.15 1014.99 1014.83 1014.99 1014.99 1015.07 1015.19 1015.23 1015.39 1015.51 1015.59 1015.59 1015.55 1015.51 1015.39 1015.35 1015.39 1015.35 1015.39 1015.39 1015.39 1015.43 1015.51 1015.67 1015.75 1015.67 1015.67 1015.87 1015.95 1015.75 1015.87 1016.03 1016.43 1016.51 1016.71 1016.55 1016.11 1016.35 1016.47 1016.55 1016.43 1016.63 1016.95 1016.87
1016.23 1016.19 1016.23 1016.23 1016.23 1016.27 1016.23 1016.15 1016.11 1016.07 1016.03 1015.87 1015.71 1015.71 1015.71 1015.67 1015.71 1015.63 1015.43 1015.31 1015.15 1015.03 1015.03 1015.35 1015.43 1015.47 1015.55 1015.59 1015.63 1015.67 1015.59 1015.51 1015.47 1015.43 1015.35 1015.31 1015.27 1015.23 1015.19 1015.15 1015.15 1015.19 1015.19 1015.31 1015.39 1015.47 1015.55 1015.79 1016.15 1016.15 1015.71 1015.47 1015.71 1016.15 1016.51 1016.51 1016.35 1016.23 1016.23 1016.15 1016.19 1016.39 1016.71
1016.23 1016.27 1016.31 1016.27 1016.39 1016.31 1016.31 1016.35 1016.31 1016.23 1016.07 1016.03 1015.99 1015.99 1015.99 1015.95 1015.87 1015.83 1015.75 1015.59 1015.47 1015.35 1015.35 1015.63 1015.83 1015.75 1015.71 1015.67 1015.55 1015.51 1015.43 1015.43 1015.35 1015.23 1015.15 1015.11 1015.07 1015.03 1014.95 1014.95 1014.87 1014.83 1014.91 1014.99 1015.03 1015.07 1015.11 1015.27 1015.55 1015.43 1015.19 1015.51 1015.99 1016.63 1016.83 1016.51 1016.31 1016.19 1016.19 1016.23 1016.11 1016.19 1016.55
1016.35 1016.51 1016.43 1016.39 1016.39 1016.43 1016.47 1016.43 1016.35 1016.35 1016.35 1016.35 1016.35 1016.27 1016.31 1016.27 1016.15 1016.07 1016.03 1015.91 1015.79 1015.67 1015.47 1016.03 1016.23 1016.15 1016.15 1016.07 1015.79 1015.63 1015.55 1015.47 1015.31 1015.19 1015.11 1015.07 1015.07 1014.95 1014.87 1014.71 1014.67 1014.59 1014.63 1014.63 1014.63 1014.59 1014.51 1014.59 1014.79 1015.23 1015.43 1015.43 1015.39 1015.63 1016.23 1016.39 1016.11 1015.95 1015.99 1016.19 1016.23 1016.19 1016.07
1016.55 1016.59 1016.59 1016.51 1016.47 1016.39 1016.39 1016.35 1016.55 1016.63 1016.67 1016.63 1016.55 1016.47 1016.39 1016.35 1016.31 1016.23 1016.15 1015.99 1015.91 1015.83 1015.75 1016.15 1016.03 1016.07 1016.11 1016.03 1015.95 1015.87 1015.71 1015.59 1015.47 1015.39 1015.23 1015.11 1014.99 1014.91 1014.83 1014.71 1014.55 1014.43 1014.39 1014.35 1014.27 1014.23 1014.27 1014.31 1014.55 1014.63 1014.99 1015.43 1015.43 1015.43 1015.27 1015.27 1015.55 1015.67 1015.47 1015.63 1015.79 1015.71 1015.83
1016.71 1016.71 1016.71 1016.63 1016.63 1016.47 1016.39 1016.51 1016.67 1016.71 1016.75 1016.71 1016.67 1016.71 1016.67 1016.59 1016.51 1016.31 1016.31 1016.31 1016.19 1015.91 1015.83 1016.19 1015.99 1015.99 1015.99 1015.95 1015.91 1015.87 1015.79 1015.83 1015.79 1015.67 1015.55 1015.35 1015.15 1014.95 1014.79 1014.71 1014.55 1014.39 1014.23 1014.11 1014.11 1014.15 1014.07 1013.95 1013.83 1013.95 1014.11 1014.43 1014.95 1015.07 1014.83 1014.59 1014.47 1014.47 1014.43 1014.99 1015.31 1015.19 1014.95
1016.87 1016.91 1016.87 1016.83 1016.83 1016.75 1016.83 1016.99 1017.03 1016.95 1016.95 1016.87 1016.87 1016.87 1016.83 1016.83 1016.71 1016.63 1016.63 1016.55 1016.47 1016.35 1016.07 1016.43 1016.47 1016.51 1016.51 1016.39 1016.27 1016.03 1015.79 1015.75 1015.75 1015.67 1015.59 1015.43 1015.23 1015.03 1014.87 1014.79 1014.71 1014.51 1014.35 1014.23 1014.11 1014.03 1013.91 1013.79 1013.71 1013.71 1013.75 1013.71 1013.75 1013.99 1014.43 1014.47 1014.27 1014.23 1014.35 1014.35 1014.43 1014.47 1013.79
1017.03 1017.07 1017.03 1017.07 1017.03 1017.15 1017.31 1017.31 1017.27 1017.27 1017.27 1017.27 1017.27 1017.31 1017.15 1017.07 1016.99 1016.91 1016.83 1016.67 1016.51 1016.35 1016.35 1016.43 1016.43 1016.43 1016.47 1016.43 1016.31 1016.15 1015.83 1015.75 1015.67 1015.55 1015.35 1015.23 1015.03 1014.87 1014.67 1014.59 1014.47 1014.43 1014.23 1014.19 1013.95 1013.99 1014.15 1014.19 1014.07 1013.99 1013.91 1013.79 1013.71 1013.67 1013.63 1013.87 1014.11 1014.23 1014.47 1014.47 1014.07 1013.67 1013.35
1017.19 1017.19 1017.11 1017.03 1017.19 1017.35 1017.47 1017.55 1017.67 1017.71 1017.75 1017.71 1017.71 1017.63 1017.47 1017.35 1017.27 1017.15 1017.03 1016.87 1016.71 1016.47 1016.47 1016.67 1016.63 1016.55 1016.55 1016.47 1016.39 1016.07 1015.91 1015.87 1015.71 1015.47 1015.19 1014.91 1014.71 1014.55 1014.39 1014.27 1014.23 1014.11 1014.11 1013.91 1014.75 1014.95 1014.87 1014.59 1014.27 1014.19 1014.11 1013.95 1013.87 1013.75 1013.67 1013.51 1013.39 1013.27 1013.27 1013.35 1013.35 1013.19 1012.95
1017.47 1017.47 1017.27 1017.35 1017.51 1017.63 1017.67 1017.75 1017.87 1017.95 1018.03 1017.99 1017.95 1017.87 1017.75 1017.63 1017.43 1017.31 1017.15 1016.99 1016.87 1016.75 1016.67 1016.55 1016.67 1016.63 1016.63 1016.67 1016.47 1016.19 1016.03 1015.91 1015.71 1015.47 1015.19 1014.79 1014.51 1014.31 1014.11 1013.99 1013.95 1013.87 1013.79 1014.79 1015.59 1015.19 1015.11 1014.63 1014.51 1014.55 1014.55 1014.43 1014.23 1013.99 1013.75 1013.39 1013.15 1013.07 1013.07 1013.03 1012.99 1012.87 1012.67
1017.71 1017.71 1017.55 1017.75 1017.87 1017.83 1017.75 1017.83 1017.95 1018.07 1018.19 1018.11 1018.03 1017.99 1017.83 1017.79 1017.67 1017.51 1017.31 1017.15 1016.99 1016.99 1016.79 1016.55 1016.75 1016.79 1016.75 1016.79 1016.71 1016.43 1016.19 1016.11 1015.95 1015.55 1015.03 1014.71 1014.63 1014.47 1014.27 1014.11 1014.23 1014.39 1014.99 1015.67 1015.63 1015.55 1015.59 1015.31 1015.11 1015.39 1015.27 1015.15 1014.87 1014.51 1014.03 1013.59 1013.19 1013.03 1013.07 1013.07 1012.95 1012.83 1012.67
1017.91 1017.87 1017.83 1018.03 1018.11 1018.07 1018.11 1018.15 1018.23 1018.23 1018.23 1018.15 1018.07 1017.99 1017.99 1017.87 1017.79 1017.55 1017.35 1017.19 1016.99 1016.87 1016.75 1016.59 1016.75 1016.83 1016.91 1016.91 1016.79 1016.63 1016.35 1016.31 1016.15 1015.83 1015.79 1015.71 1015.47 1015.19 1014.91 1014.63 1014.87 1015.27 1015.67 1015.83 1015.79 1015.83 1015.95 1016.03 1016.07 1015.83 1015.91 1015.63 1015.23 1014.83 1014.23 1014.07 1014.15 1014.03 1013.59 1013.27 1012.87 1012.79 1012.47
1017.99 1017.99 1018.03 1018.19 1018.19 1018.19 1018.27 1018.27 1018.35 1018.39 1018.35 1018.27 1018.27 1018.15 1018.03 1017.91 1017.71 1017.55 1017.23 1017.07 1016.83 1016.71 1016.67 1016.63 1016.95 1016.99 1017.07 1017.11 1017.15 1016.91 1016.55 1016.67 1016.71 1016.75 1016.59 1016.43 1016.15 1015.63 1015.35 1015.15 1014.83 1014.91 1015.11 1015.23 1015.47 1015.75 1016.11 1016.43 1016.47 1016.35 1016.03 1015.79 1015.43 1014.75 1014.55 1014.79 1014.59 1014.59 1014.19 1013.83 1013.31 1012.95 1012.59
1018.11 1018.03 1018.11 1018.15 1018.15 1018.19 1018.31 1018.39 1018.31 1018.23 1018.27 1018.27 1018.23 1018.07 1017.91 1017.75 1017.59 1017.35 1017.11 1016.83 1016.67 1016.51 1016.47 1016.55 1017.15 1017.23 1017.35 1017.43 1017.43 1017.23 1016.91 1017.31 1017.51 1017.43 1017.23 1016.87 1016.51 1016.19 1015.83 1015.55 1015.39 1015.35 1015.55 1015.67 1015.75 1015.71 1015.67 1015.83 1016.27 1016.31 1015.95 1015.59 1015.27 1015.15 1015.35 1015.11 1014.43 1014.43 1014.23 1013.75 1013.35 1012.75 1012.23
1017.99 1017.99 1018.11 1018.11 1018.11 1018.07 1018.03 1018.07 1017.99 1017.95 1018.11 1018.07 1017.95 1017.83 1017.71 1017.59 1017.51 1017.39 1017.03 1016.71 1016.51 1016.39 1016.23 1016.59 1017.27 1017.71 1017.83 1017.95 1017.95 1017.83 1017.67 1017.99 1018.19 1017.95 1017.55 1017.15 1016.83 1016.59 1016.35 1016.11 1015.95 1015.79 1015.99 1016.19 1016.19 1016.11 1015.99 1015.87 1015.71 1015.79 1015.51 1015.39 1015.19 1015.19 1015.23 1015.07 1014.75 1014.31 1013.83 1013.35 1012.91 1012.43 1012.03
1017.87 1017.91 1018.03 1018.03 1017.99 1017.95 1017.91 1017.95 1017.87 1017.87 1018.03 1017.99 1017.91 1017.71 1017.51 1017.47 1017.47 1017.31 1017.07 1016.83 1016.63 1016.47 1016.59 1017.07 1017.55 1017.99 1018.11 1018.15 1018.23 1018.23 1018.23 1018.19 1018.19 1017.95 1017.79 1017.59 1017.35 1017.03 1016.67 1016.39 1016.03 1015.95 1016.15 1016.19 1016.23 1016.11 1015.99 1015.79 1015.59 1015.35 1015.15 1014.95 1014.83 1014.79 1014.95 1014.71 1014.39 1014.11 1013.71 1013.23 1012.75 1012.31 1011.91
1017.79 1017.79 1017.91 1017.91 1017.79 1017.83 1017.83 1017.79 1017.71 1017.87 1017.91 1017.95 1017.99 1017.83 1017.63 1017.39 1017.23 1017.15 1017.23 1017.15 1017.03 1016.87 1016.83 1017.67 1017.95 1017.99 1018.23 1018.31 1018.35 1018.39 1018.31 1018.19 1018.07 1017.99 1017.91 1017.75 1017.39 1017.11 1016.79 1016.47 1016.39 1016.47 1016.43 1016.31 1016.07 1015.87 1015.67 1015.55 1015.35 1014.95 1014.67 1014.51 1014.47 1014.63 1014.67 1014.31 1014.07 1013.75 1013.35 1012.87 1012.39 1011.99 1011.59
Wind_Speed
8 9 11 10 11 7 6 7 6 7 8 7 6 8 7 7 9 7 7 6 5 5 6 6 6 5 4 4 4 4 5 5 5 6 5 3 5 5 5 5 5 5 6 5 4 3 3 1 4 5 4 6 6 8 8 8 9 8 8 7 7 8 8
11 11 7 7 7 8 6 7 6 7 7 7 7 7 8 8 8 9 8 7 6 6 6 6 7 7 7 5 6 6 6 6 6 5 5 5 6 6 5 6 6 6 5 5 5 4 4 3 5 5 6 6 5 5 7 7 6 7 9 9 9 7 8
5 6 7 8 10 10 6 7 6 7 7 7 8 8 7 8 7 7 7 8 8 7 6 6 7 7 6 5 5 6 6 7 5 5 7 6 4 2 2 1 3 5 5 4 5 6 5 6 6 3 3 7 8 7 7 8 10 9 8 9 10 9 7
7 7 6 7 8 6 6 7 6 6 4 4 4 5 6 6 7 8 7 7 6 6 7 7 6 8 7 5 4 7 7 8 6 7 6 5 4 4 4 3 4 5 4 5 5 4 4 3 4 6 6 6 8 8 8 11 10 10 9 7 9 9 8
5 5 5 6 3 2 1 1 3 2 0 1 2 2 4 5 4 4 8 8 8 6 7 6 5 6 7 6 5 6 7 8 7 7 6 7 7 6 6 6 6 5 5 6 4 5 5 5 5 5 4 3 4 5 6 10 9 9 8 9 9 9 9
6 6 3 2 2 2 2 4 3 1 0 2 2 3 3 4 3 3 4 6 6 7 7 7 6 5 7 7 7 7 7 8 7 7 7 9 8 7 7 6 6 6 7 6 5 4 3 4 5 5 4 4 6 4 2 5 5 8 9 9 9 9 9
5 4 5 1 1 2 3 3 1 2 3 4 2 1 2 2 3 4 4 5 4 3 3 4 5 5 4 6 7 7 7 7 7 8 8 8 8 7 5 5 6 7 6 6 6 5 6 4 5 5 4 4 3 5 4 3 6 6 7 8 9 9 10
1 1 6 2 3 3 3 2 1 2 2 1 1 2 3 2 3 2 3 6 9 9 6 3 4 5 5 5 5 6 7 7 8 7 7 8 9 8 7 7 6 6 6 6 7 6 6 6 5 4 4 5 5 6 6 5 4 11 9 9 11 11 10
5 5 4 1 0 1 3 3 3 2 1 3 4 4 2 1 1 2 1 2 4 3 4 8 12 11 7 5 5 5 6 5 7 8 7 8 9 9 9 8 7 8 7 7 6 6 6 6 5 5 3 4 4 6 4 5 6 7 7 5 10 12 11
4 4 3 3 2 1 2 3 4 3 3 3 2 1 5 3 2 1 2 4 5 6 7 8 9 9 11 7 6 6 6 4 5 6 6 7 8 8 8 9 9 8 8 7 7 7 6 5 6 5 5 6 4 6 6 5 6 6 6 8 4 9 14
1 4 4 2 2 2 3 3 3 3 3 4 3 2 1 2 1 3 2 3 4 5 5 4 5 7 7 5 5 7 4 4 5 7 6 7 7 6 7 8 8 9 9 8 8 7 6 6 6 6 6 5 5 7 5 6 7 4 4 4 3 3 10
3 3 3 3 2 2 3 4 4 4 3 3 3 4 4 1 2 3 3 3 4 5 5 7 7 7 4 4 6 7 3 1 6 9 7 7 7 6 7 8 8 8 8 9 8 7 7 6 6 6 5 5 6 6 7 6 8 5 4 4 4 5 2
1 1 1 1 3 4 4 4 4 4 3 3 2 4 6 2 2 4 4 4 5 6 6 6 5 4 4 5 4 4 3 3 7 8 5 2 2 1 6 8 10 10 11 9 7 6 7 7 6 6 6 6 7 7 6 6 8 9 4 3 3 4 6
3 2 2 2 4 6 4 2 2 3 0 3 3 5 7 6 4 5 6 6 6 5 6 6 4 4 3 4 4 4 3 3 1 1 2 3 3 5 6 6 8 8 8 10 9 9 8 8 7 6 6 6 6 6 7 7 8 8 6 7 8 5 5
3 3 5 5 3 3 3 5 6 6 6 5 5 6 7 7 6 7 7 7 7 6 7 7 6 5 4 4 4 3 4 2 1 2 2 4 3 4 3 5 9 7 4 6 12 13 9 9 7 7 8 8 7 7 5 6 7 7 9 4 4 3 6
6 7 3 3 2 5 7 9 7 5 7 7 5 5 6 9 9 7 6 6 7 7 7 8 5 5 5 4 4 3 3 3 3 3 3 3 4 6 6 6 7 5 3 5 9 11 10 13 10 9 8 7 9 9 8 7 6 8 8 5 4 4 8
4 5 5 4 6 4 2 3 1 5 10 8 7 7 8 5 9 9 8 8 8 9 7 4 5 2 1 2 2 3 3 2 3 3 4 5 5 4 5 6 7 6 5 7 8 7 9 11 12 9 7 5 3 4 7 7 8 7 4 3 3 2 8
3 3 3 2 3 4 4 3 3 6 4 3 2 8 8 5 5 3 7 7 7 8 7 6 5 3 2 5 4 3 3 5 6 6 5 4 5 5 6 6 7 4 3 6 6 7 10 16 13 9 9 9 7 6 5 4 5 4 1 4 7 3 4
3 3 3 3 4 4 2 3 4 4 5 5 6 6 1 8 8 7 6 5 9 6 4 3 5 5 3 1 1 3 5 6 7 5 5 6 6 6 5 6 6 5 4 4 5 5 6 9 11 12 13 12 10 6 4 3 4 2 1 5 6 5 0
3 3 3 3 3 3 4 3 4 5 3 4 5 5 6 7 3 1 3 3 4 5 3 3 3 3 3 3 4 4 4 5 6 6 5 4 2 2 3 2 2 4 6 4 4 5 6 8 6 8 9 9 12 12 12 9 5 3 4 5 5 3 6
2 2 2 2 4 4 4 5 5 4 4 4 3 4 6 5 4 5 5 5 4 1 2 3 2 1 1 2 1 1 2 3 4 5 4 3 3 2 3 4 5 5 5 5 6 6 6 8 6 2 0 5 8 6 10 8 4 4 2 4 8 9 7
1 2 3 2 3 3 2 2 3 4 4 5 3 4 5 5 5 6 5 4 4 5 5 6 5 4 4 3 0 2 2 4 5 5 4 4 3 3 4 5 5 5 5 7 9 8 9 6 4 5 7 6 5 4 4 5 6 6 4 7 7 7 7
3 4 3 2 3 2 3 3 2 2 3 4 5 5 5 5 6 6 6 6 6 4 3 3 3 7 5 3 2 2 1 3 4 4 3 3 3 4 4 3 5 10 10 10 10 11 11 11 9 9 8 4 4 7 9 9 7 6 6 6 8 8 8
3 5 3 3 3 3 3 2 3 5 5 5 5 6 6 6 5 5 6 5 5 4 3 5 7 9 9 10 5 3 2 3 4 4 4 4 4 4 3 4 4 7 8 8 7 10 11 12 11 12 13 12 11 10 8 8 7 6 5 5 7 8 9
4 4 4 4 4 3 2 2 5 5 4 4 4 4 4 5 5 5 5 5 4 4 3 6 10 8 9 9 7 5 4 4 5 5 5 6 5 4 5 5 4 3 4 5 5 5 8 12 12 14 12 16 19 18 16 12 8 8 9 8 8 9 8
5 4 4 5 5 4 4 6 6 6 6 6 5 6 7 7 6 5 6 8 8 6 4 6 9 8 7 8 7 5 4 4 6 6 6 8 8 7 6 5 5 5 5 6 5 4 6 7 12 14 14 12 16 19 20 20 18 13 8 8 10 12 10
5 5 5 5 4 5 7 7 6 6 6 6 6 6 7 8 7 7 7 6 7 8 7 5 8 9 9 8 7 4 3 4 4 6 6 7 8 8 8 7 7 7 6 7 8 8 8 8 6 5 5 4 3 8 18 21 22 23 18 12 11 11 13
6 6 5 5 4 6 6 5 6 6 6 7 7 7 7 7 7 7 8 7 6 6 4 11 12 9 7 6 7 2 4 4 5 6 6 6 8 8 8 8 7 8 8 7 8 8 7 7 6 5 6 7 5 6 6 4 7 9 11 11 12 12 13
5 6 6 5 6 7 6 6 7 6 6 5 6 6 6 6 7 7 7 7 7 8 5 10 11 8 5 6 7 5 5 5 6 7 7 6 7 6 6 6 6 6 6 5 14 17 11 8 5 5 6 6 7 6 5 6 10 11 8 7 8 10 11
5 6 6 7 7 7 6 6 5 5 6 6 6 6 6 7 7 7 8 7 7 7 8 8 10 7 6 7 5 4 5 5 6 7 7 7 5 5 4 4 5 4 3 8 11 16 16 13 7 8 8 9 9 8 8 8 11 13 14 14 16 18 19
6 6 5 7 6 5 5 5 5 5 6 6 6 5 6 7 7 7 7 8 7 7 6 9 9 9 8 7 4 5 5 6 8 8 7 4 6 6 7 12 12 9 11 8 14 15 17 13 9 10 9 10 10 10 9 9 9 8 13 15 16 16 14
5 5 5 6 5 5 5 5 5 5 5 5 5 6 6 6 6 6 6 6 9 8 5 6 9 8 8 8 7 5 5 6 6 7 10 10 9 7 8 11 10 10 8 8 12 13 14 12 6 6 8 8 9 10 9 8 9 12 13 13 13 12 12
4 4 5 5 3 4 4 4 4 4 4 5 6 5 5 5 6 5 5 5 5 4 4 4 7 9 9 9 9 6 5 5 7 8 8 8 8 8 8 7 8 9 17 18 15 13 10 9 7 5 7 8 9 12 8 11 12 12 14 14 15 14 16
3 2 4 3 2 3 2 3 3 3 4 3 3 3 4 4 4 4 4 4 4 4 3 2 7 9 8 10 12 8 5 6 6 6 7 7 6 7 7 7 6 11 14 15 16 18 19 17 12 7 7 7 8 9 12 11 13 15 12 13 14 14 13
1 2 3 2 2 1 1 2 2 2 2 3 4 3 3 3 4 5 5 5 4 3 4 8 6 7 10 10 11 12 7 6 5 6 7 6 7 6 7 7 7 8 11 14 16 17 18 18 19 10 10 13 17 17 12 9 9 9 9 10 10 11 11
3 2 2 2 2 1 1 2 1 3 3 3 4 4 3 3 3 3 4 5 5 5 5 7 11 8 7 7 8 9 7 5 5 5 5 7 7 7 7 7 8 12 18 19 17 17 16 17 14 11 15 16 16 16 11 7 8 9 9 9 9 10 10
4 1 2 1 1 2 1 2 1 3 2 3 4 5 5 4 4 4 5 4 5 6 5 8 8 9 5 5 7 5 6 5 5 4 5 6 6 7 7 7 10 17 18 16 17 16 16 15 12 16 17 17 16 12 7 8 7 7 8 8 8 8 8
Wind_Direction
149 199 197 221 262 242 181 186 175 183 188 187 187 184 204 173 172 189 197 200 212 190 184 197 211 212 224 207 178 159 166 175 183 198 214 178 181 194 199 221 221 243 254 263 265 247 248 231 222 241 231 217 198 202 202 203 209 208 198 202 201 192 196
178 198 204 174 242 250 197 181 192 181 188 188 194 196 199 191 178 185 191 194 205 208 195 199 199 208 215 201 181 174 167 175 188 193 199 202 184 187 166 212 205 215 220 221 242 252 232 221 242 205 214 222 213 208 202 211 218 206 193 197 204 204 189
190 181 191 193 201 226 194 181 194 179 192 187 191 207 202 197 191 187 189 198 197 208 210 205 197 202 214 212 178 165 173 183 187 181 196 214 218 191 185 243 231 221 207 222 215 215 228 224 244 250 221 190 209 218 206 209 218 224 198 193 198 202 198
194 189 201 203 209 200 191 193 189 180 180 188 190 206 211 213 196 187 194 201 207 202 212 217 200 193 196 204 181 167 181 187 185 187 202 215 216 206 189 195 247 250 228 205 204 189 211 230 224 236 244 247 200 215 216 213 215 213 214 197 193 199 204
197 191 191 194 204 217 358 30 357 24 102 207 227 243 246 236 227 206 191 197 199 200 204 219 229 186 181 185 191 178 185 192 189 187 196 206 209 210 206 199 212 233 246 243 221 194 191 221 228 249 254 258 259 231 206 213 210 211 212 207 199 199 200
310 276 201 184 191 183 166 178 174 131 204 309 360 334 324 322 310 282 241 211 210 197 197 204 233 221 176 184 195 194 186 193 198 194 198 212 206 204 213 218 224 223 232 241 241 228 206 209 209 233 232 237 249 267 282 159 207 210 214 210 206 201 199
248 2 307 342 177 53 28 358 295 200 180 185 196 242 296 280 279 288 297 293 271 264 220 211 216 234 217 191 186 191 196 200 202 203 208 212 215 215 205 220 226 232 237 233 240 231 225 224 233 222 234 247 242 252 254 229 194 198 215 218 211 207 200
291 137 276 330 4 6 2 345 327 334 348 349 287 189 213 237 246 288 354 0 344 332 320 287 246 233 231 226 206 201 198 195 199 202 209 207 214 215 209 215 232 239 239 233 228 227 217 212 212 219 209 242 260 245 242 250 252 200 205 208 209 207 207
183 198 222 246 302 347 316 327 317 321 335 333 309 310 272 278 48 67 228 177 200 236 301 333 326 315 284 243 231 218 217 203 199 198 206 209 220 216 217 217 227 238 238 241 237 231 232 221 206 208 212 227 248 272 251 245 244 258 233 217 202 211 199
182 186 214 198 178 229 299 296 286 291 307 265 258 46 58 30 324 285 236 247 237 211 194 190 206 237 268 266 248 233 224 221 216 210 206 218 224 222 220 217 222 228 233 228 230 227 227 221 213 202 198 215 223 246 261 258 249 242 236 224 235 194 203
202 194 181 174 142 194 198 233 274 302 292 300 322 326 151 208 164 257 260 270 293 307 294 282 250 247 255 258 279 277 273 313 329 305 259 230 231 227 229 230 227 231 227 225 223 221 226 218 212 203 207 219 212 240 249 258 268 252 259 289 251 259 192
232 228 169 156 165 215 224 233 238 219 237 280 345 312 268 230 102 254 238 239 241 252 246 233 239 248 240 270 264 252 183 178 249 259 282 288 276 279 277 264 253 247 236 231 225 222 222 226 219 211 215 212 220 224 240 256 271 263 274 267 287 279 291
131 284 125 223 247 212 221 228 239 238 222 226 222 250 266 241 204 245 260 246 235 242 255 257 242 242 225 219 224 259 266 175 229 241 225 198 229 233 278 290 300 300 303 289 267 244 231 227 226 219 213 214 223 223 225 243 252 270 276 282 276 291 280
106 133 141 176 245 277 277 262 257 261 272 246 243 246 250 237 220 245 251 246 240 240 247 256 260 264 237 244 238 244 262 276 169 271 275 274 243 231 227 234 251 258 270 292 293 277 258 237 226 226 224 225 225 217 217 226 243 261 261 264 281 277 297
83 116 126 173 227 281 318 326 306 302 261 213 196 233 254 249 214 230 241 248 244 242 245 245 250 238 240 234 250 224 247 219 221 266 283 277 296 302 279 247 256 269 298 302 286 282 282 267 242 225 222 221 227 235 219 219 231 238 251 248 267 284 263
26 11 34 79 134 159 178 186 198 224 268 289 295 291 292 279 261 225 219 238 256 249 239 239 232 227 227 225 230 241 221 225 229 232 240 248 255 257 264 266 271 271 251 258 272 279 276 271 258 242 234 222 217 221 224 223 225 236 248 250 244 307 355
36 34 28 20 8 340 45 20 118 192 193 183 210 199 213 219 270 284 297 287 268 256 247 243 235 216 353 306 334 295 300 268 224 222 221 249 256 249 253 260 257 255 248 251 258 269 281 282 280 264 257 261 256 230 224 227 225 234 250 292 32 142 232
41 31 12 11 19 345 13 14 2 326 11 343 175 180 186 213 230 270 260 270 293 298 308 312 346 356 330 257 217 263 279 273 263 235 225 216 218 229 244 256 275 303 312 289 293 310 306 290 281 297 290 276 263 249 244 241 250 236 105 230 243 222 252
12 4 18 358 356 340 0 29 346 357 3 352 340 338 338 168 193 221 235 233 249 260 254 253 232 243 238 80 106 217 237 256 261 250 227 219 214 214 243 254 254 243 248 256 265 246 255 284 303 302 296 286 285 302 7 333 306 12 179 234 232 275 342
360 345 9 342 324 336 354 358 348 354 350 348 343 338 353 356 29 221 212 210 210 221 236 192 200 211 218 202 224 184 215 231 261 277 268 264 273 254 230 241 293 294 279 281 288 277 264 264 259 277 288 321 339 352 330 323 339 37 5 326 313 278 269
355 36 338 352 357 358 351 342 347 336 340 333 333 339 347 347 351 343 348 337 323 267 225 236 225 216 217 186 207 245 230 246 259 259 275 286 274 275 275 265 258 256 235 227 240 249 258 260 255 255 84 262 265 267 270 284 300 43 47 295 275 278 267
8 39 29 1 27 8 332 334 349 343 326 311 337 354 345 350 339 328 329 321 327 354 356 49 39 35 30 27 342 248 276 285 279 275 267 260 252 241 241 244 245 236 242 234 218 238 259 283 338 306 276 257 263 257 270 275 294 294 238 246 260 265 266
16 49 2 15 34 357 7 22 322 309 337 352 356 355 340 336 332 332 334 336 336 343 350 93 83 76 57 43 23 0 322 258 270 281 285 277 263 252 247 243 232 243 240 242 244 242 249 256 221 224 254 274 268 276 276 263 241 236 241 249 256 255 252
20 43 1 358 48 5 11 348 350 10 13 1 1 1 351 338 340 334 325 319 325 334 348 59 65 61 53 34 15 357 336 328 317 310 308 313 308 303 274 244 236 244 247 254 252 246 252 251 251 227 227 229 239 233 218 253 267 278 264 250 260 268 271
31 42 9 360 23 348 6 8 26 18 357 359 353 333 326 347 347 342 335 331 321 319 346 100 92 82 71 58 39 21 342 339 337 330 322 309 306 297 306 305 290 252 230 237 251 259 245 244 245 248 227 196 220 239 240 232 227 236 233 241 250 247 253
22 29 12 13 1 349 360 24 17 4 4 359 357 356 357 349 343 345 349 350 342 334 353 89 88 87 81 69 47 35 349 343 329 327 319 317 311 311 303 302 303 318 316 283 273 257 248 256 260 255 250 229 201 208 228 241 242 241 252 236 243 258 252
17 19 11 16 4 3 18 20 11 6 2 356 356 358 354 351 349 354 353 346 339 339 342 52 52 52 53 46 30 10 341 321 309 295 293 290 292 293 295 290 296 292 301 296 298 301 299 292 308 301 296 293 286 200 202 217 228 234 232 236 237 243 251
15 11 15 8 10 25 22 9 8 11 4 2 358 357 349 345 351 348 347 344 332 329 22 75 75 76 70 61 359 324 321 325 309 292 280 273 268 265 270 276 277 280 276 284 274 317 335 345 339 330 314 308 294 293 291 264 229 210 216 228 235 236 239
22 2 4 8 25 21 17 19 12 15 4 3 358 351 348 343 344 344 341 341 332 330 44 64 52 42 43 14 348 324 342 331 312 299 287 267 256 256 261 263 261 266 276 277 29 37 20 351 344 331 319 313 311 306 298 286 280 282 269 239 227 228 232
22 2 2 21 20 18 11 20 15 11 356 359 352 352 348 343 347 341 342 341 337 338 341 340 10 27 36 18 352 341 343 330 308 296 289 295 295 284 277 262 255 261 287 46 28 31 21 13 6 355 340 331 320 313 300 299 290 287 280 274 270 276 279
21 357 16 29 19 6 16 15 14 6 354 350 350 352 349 348 349 342 336 339 341 333 328 337 33 50 61 27 337 333 349 336 323 312 304 310 338 328 325 339 18 25 43 31 27 33 27 20 8 0 353 337 327 312 304 307 307 316 334 336 329 316 297
27 356 31 33 18 13 16 15 11 358 357 346 350 350 351 345 341 337 334 330 331 326 331 335 61 67 67 39 13 354 340 338 317 334 355 351 344 339 341 341 48 75 59 30 32 32 27 29 11 350 341 321 309 302 299 331 332 323 318 317 310 311 305
31 2 36 34 17 24 13 13 17 13 351 360 349 349 338 337 336 330 319 317 309 306 308 332 76 66 61 40 11 346 352 346 348 345 341 335 326 326 332 332 332 9 11 6 3 5 18 30 11 326 317 307 300 297 335 331 311 308 304 301 298 299 296
12 17 40 16 26 41 42 11 0 8 13 3 338 329 333 321 323 317 314 301 295 302 286 16 90 93 73 49 29 11 10 34 11 349 329 319 315 317 320 328 329 349 0 358 353 346 342 340 342 326 299 293 296 316 325 305 303 305 293 290 287 290 289
18 35 51 3 344 59 34 57 323 53 23 346 344 352 347 345 352 342 324 307 309 300 346 90 123 77 68 58 44 35 34 47 22 334 321 312 316 315 321 318 320 328 354 350 342 338 331 327 324 321 302 292 297 298 297 290 291 292 292 293 290 287 288
70 15 53 339 317 13 64 2 346 39 33 0 352 350 356 25 3 329 336 339 346 350 47 102 92 86 84 85 75 63 52 31 332 330 326 317 316 313 308 307 308 340 341 334 332 326 318 311 311 299 296 295 290 293 296 290 287 290 285 289 290 288 289
44 15 25 317 315 21 32 342 37 59 42 17 7 356 358 358 353 11 13 11 355 359 24 99 94 113 113 96 89 59 17 346 317 319 320 304 306 302 304 311 322 330 326 324 316 308 305 302 287 284 286 286 286 292 289 282 278 275 283 283 282 281 283